www.pogodaiklimat.ru

Погода и климат >> Архив погоды >> Казахстан >> Жосалы


АРХИВ ПОГОДЫ в Жосалы

Время (UTC), дата Ветер
(напр.,м/с)
 
Видим.   Явления Облачность Т
(С)
Тd
(С)
f
(%)
Тe
(С)
Тes
(С)
Комфортность P
(гПа)
Po
(гПа)
Тmin
(С)
Tmax
(С)
R
(мм)
R24
(мм)
S
(см)
09 9.07 С 7-19
{16}
50 км ясно +36.6 +7.1 16 +34 +39 очень
жарко
1005.4 994.1
12 9.07 С 11-18
{18}
50 км ясно +37.3 +6.7 15 +35 +35 очень
жарко
1005.0 993.8
15 9.07 СВ 10
{18}
50 км ясно +35.7 +6.5 17 +33 +33 жарко 1005.5 994.2 +39.0
18 9.07 СВ 9 н/о ясно +30.0 +6.1 22 +29 +29 жарко 1007.1 995.6 +39.0
21 9.07 СВ 9 н/о ясно +26.1 +4.8 25 +25 +25 комфорт 1007.8 996.1
00 10.07 СВ 7 20 км ясно +24.3 +6.8 33 +24 +24 комфорт 1008.2 996.4
03 10.07 В 10-15
{15}
50 км ясно +29.2 +8.0 26 +28 +29 жарко 1008.2 996.7
06 10.07 В 15-21
{21}
50 км ясно +35.2 +8.1 19 +33 +33 жарко 1007.5 996.2 +24.0
09 10.07 В 8
{21}
50 км 3/0
[Ci fib]
+38.0 +7.8 16 +36 +39 очень
жарко
1006.1 994.9
12 10.07 ЮВ 7 50 км 4/0
[Ci]
+38.8 +7.6 15 +37 +38 очень
жарко
1004.2 993.0
15 10.07 В 5 50 км 4/0
[Ci]
+37.0 +8.0 17 +35 +35 очень
жарко
1003.9 992.7 +39.6
18 10.07 В 4 н/о 6/0
[Ac lent Cs]
+29.7 +8.0 26 +29 +29 жарко 1004.7 993.2 +39.6
21 10.07 В 3 н/о 8/0
[Ac cast Ci]
+26.5 +6.5 28 +26 +26 жарко 1004.2 992.5
00 11.07 В 5 20 км 8/6 1000 м
[Cu med, cong Ac cast Ci sp]
+25.0 +6.5 31 +25 +25 комфорт 1003.6 992.0
03 11.07 В 5 50 км 8/0
[Ac cast Ci sp]
+27.2 +5.3 25 +26 +28 жарко 1004.1 992.5
06 11.07 В 3 50 км 6/3 1000 м
[Cu hum Ac cast Ci sp]
+36.4 +8.6 18 +35 +42 очень
жарко
1003.6 992.3 +24.6
09 11.07 В 4 50 км 5/3 1000 м
[Cu hum Ac cast Ci sp]
+40.9 +7.7 14 +39 +46 очень
жарко
1002.2 991.2
12 11.07 Ю 5 50 км 8/4 1000 м
[Cu hum Ac cast Ci sp]
+39.1 +5.5 13 +36 +38 очень
жарко
1001.5 990.4
15 11.07 ЮЗ 3 50 км 4/3 600 м
[Sc diur, vesp Ac cast]
+38.0 +9.3 18 +36 +36 очень
жарко
1001.8 990.6 +42.6
18 11.07 В 4 н/о ясно +30.4 +9.4 27 +30 +30 жарко 1002.5 991.0 +42.6
21 11.07 В 7 н/о ясно +29.3 +8.4 27 +29 +29 жарко 1002.8 991.3
00 12.07 В 5 20 км ясно +25.7 +5.8 28 +25 +25 комфорт 1003.8 992.2
03 12.07 В 8 50 км ясно +30.3 +5.5 21 +29 +30 жарко 1004.3 992.8
06 12.07 СВ 11 50 км ясно +36.4 +0.9 11 +33 +33 жарко 1004.0 992.7 +24.9
09 12.07 В 15-20
{22}
50 км ясно +39.0 -0.5 8 +35 +35 очень
жарко
1002.9 991.7
12 12.07 В 12-17
{20}
50 км ясно +39.6 -0.9 8 +36 +36 очень
жарко
1001.8 990.7
15 12.07 СВ 12-18
{20}
50 км ясно +38.3 -0.5 9 +35 +35 очень
жарко
1001.9 990.7 +42.6
18 12.07 СВ 8
{18}
н/о ясно +30.7 +2.1 16 +28 +28 жарко 1002.9 991.4 +42.6
21 12.07 СВ 10 н/о ясно +27.9 +2.3 19 +26 +26 жарко 1002.7 991.1
00 13.07 СВ 6 20 км ясно +25.0 +3.8 25 +24 +24 комфорт 1003.1 991.4
03 13.07 В 7 50 км ясно +29.2 +4.3 20 +27 +29 жарко 1003.1 991.6
06 13.07 В 10-15
{15}
50 км ясно +37.4 +4.0 13 +34 +35 очень
жарко
1002.5 991.3 +24.2
09 13.07 В 12-18
{18}
50 км 3/0
[Ci]
+40.1 +3.2 10 +37 +37 очень
жарко
1001.2 990.1
12 13.07 В 10-16
{18}
50 км 3/0
[Ci fib]
+41.0 +2.7 10 +38 +38 очень
жарко
1000.3 989.2
15 13.07 СВ 9
{16}
50 км ясно +39.4 +3.4 11 +36 +36 очень
жарко
1000.7 989.6 +43.2
18 13.07 СВ 4 н/о ясно +30.4 +5.9 21 +29 +29 жарко 1001.7 990.2 +43.2
21 13.07 СВ 4 н/о ясно +27.3 +4.0 22 +26 +26 жарко 1001.9 990.3
00 14.07 СВ 5 20 км ясно +23.9 +3.4 26 +23 +23 комфорт 1002.6 990.9
03 14.07 В 7 50 км ясно +28.7 +4.6 22 +27 +29 жарко 1003.2 991.6
06 14.07 В 5 50 км ясно +38.1 +6.4 14 +35 +44 очень
жарко
1003.1 991.9 +23.9
09 14.07 В 11-16
{16}
50 км ясно +40.7 +5.9 12 +38 +38 очень
жарко
1002.1 991.0
12 14.07 С 13-18
{18}
50 км ясно +41.6 +4.8 11 +39 +39 очень
жарко
1001.4 990.4
15 14.07 СВ 10-15
{18}
50 км ясно +39.6 +5.9 13 +37 +37 очень
жарко
1001.7 990.6 +43.0
18 14.07 СВ 7
{15}
н/о ясно +31.5 +6.5 21 +30 +30 жарко 1002.2 990.8 +43.0
21 14.07 СВ 5 н/о ясно +28.2 +5.3 23 +27 +27 жарко 1002.1 990.5
00 15.07 СВ 5 20 км ясно +24.4 +3.0 25 +24 +24 комфорт 1001.8 990.1
03 15.07 В 5 50 км ясно +29.5 +5.8 22 +28 +31 жарко 1002.6 991.1
06 15.07 Ю 2 50 км ясно +39.0 +11.8 20 +38 +54 опасность
солнечного
удара
1002.6 991.5 +23.5
09 15.07 Ю 1 50 км ясно +41.6 +8.2 14 +40 +60 опасность
солнечного
удара
1001.9 990.9
12 15.07 ЮВ 2 50 км ясно +42.4 +9.4 14 +41 +47 опасность
перегрева
1001.0 990.0
15 15.07 Ю 5 50 км ясно +38.6 +10.5 19 +38 +38 очень
жарко
1000.7 989.6 +44.0
18 15.07 З 8 н/о ясно +33.8 +11.2 25 +33 +33 жарко 1002.1 990.8 +44.0
21 15.07 СЗ 5 н/о ясно +29.5 +11.1 32 +30 +30 жарко 1002.7 991.2
00 16.07 С 12-16
{16}
20 км ясно +28.4 +9.9 32 +29 +29 жарко 1002.9 991.3
03 16.07 С 16-21
{21}
50 км ясно +29.9 +9.9 29 +30 +30 жарко 1004.1 992.6

 

Местоположение метеостанции Жосалы (Кызылординская область, Казахстан): широта 45.50 долгота 64.08 высота над уровнем моря 103 м.

В архиве по умолчанию представлена погода в Жосалы за последнюю неделю. Архивные данные за месяц целиком и за предыдущие месяцы, начиная с января 2011 года, Вы можете получить, выбрав интересующий диапазон дат из раскрывающегося списка и нажав кнопку "Ввод!".


*Определитесь, кто Вы:
робот инопланетянин человек

Внимание! Время в таблицах - всемирное. Для получения местного времени необходимо прибавить поправку, которая равна 6 ч.

Смотрите также архив погоды в соседних городах и на ближайших метеорологических станциях:

Погода в Акае (Кызылординская область, Казахстан) (64 км)
Погода в Жалагаше (Кызылординская область, Казахстан) (66 км)
Погода в Караке (Кызылординская область, Казахстан) (99 км)
Погода в Кызылорде (Кызылординская область, Казахстан) (133 км)
Погода в Тасбугете (Кызылординская область, Казахстан) (140 км)
Погода в Казалинске (Кызылординская область, Казахстан) (155 км)
Погода в Ширик-Рабате (Кызылординская область, Казахстан) (184 км)
Погода в Каукее (Кызылординская область, Казахстан) (189 км)
Погода в Акбакае (Жамбылская область, Казахстан) (228 км)
Погода в Кульжамбае (Карагандинская область, Казахстан) (232 км)

Пояснения к столбцам:

Ветер - указаны скорость ветра в м/с - средняя за 10 мин, порывы в срок и между сроками (в фигурных скобках) и направление, откуда дует ветер: С - северный, СВ - северо-восточный, В - восточный, ЮВ - юго-восточный, Ю - южный, ЮЗ - юго-западный, З - западный, СЗ - северо-западный.
Видимость - горизонтальная дальность видимости в метрах или километрах. При видимости от 1 до 10 км при отсутствии осадков обычно наблюдается дымка, при ухудшении видимости до 1 км и менее - туман. В сухую погоду видимость может ухудшаться дымом, пылью или мглою.
Явления - указаны атмосферные явления, наблюдавшиеся в срок или в последний час перед сроком; фигурными скобками обозначены явления, наблюдавшиеся между сроками (за 1-3 часа до срока); квадратными скобками обозначены град или гололедные отложения с указанием их диаметра в мм.
Облачность - указаны через наклонную черту общая и нижняя облачность в баллах и высота нижней границы облаков в метрах; квадратными скобками обозначены формы облаков: Ci - перистые, Cs - перисто-слоистые, Cc - перисто-кучевые, Ac - высококучевые, As - высокослоистые, Sc - слоисто-кучевые, Ns - слоисто-дождевые, Cu - кучевые, Cb - кучево-дождевые. Подробнее классификацию облаков см. в Атласе облаков (PDF).
T - Температура воздуха - температура, измеренная на высоте 2 м над землей.
Td - Температура точки росы - температура, при понижении до которой содержащийся в воздухе водяной пар достигнет насыщения.
f - Относительная влажность воздуха - влажноcть воздуха, измеренная на высоте 2 м над землей.
Te - Эффективная температура - температура, которую ощущает одетый по сезону человек в тени. Характеристика душности погоды. При расчете учитывается влияние влажности воздуха и скорости ветра на теплоощущения человека.
Tes - Эффективная температура на солнце - температура, которую ощущает человек, с поправкой на солнечный нагрев. Характеристика знойности погоды. Зависит от высоты солнца над горизонтом, облачности и скорости ветра. Ночью, в пасмурную погоду, а также при ветре 12 м/с и более поправка равна нулю.
P - Атмосферное давление - приведенное к уровню моря атмосферное давление.
Po - Атмосферное давление - измеренное на уровне метеостанции атмосферное давление.
Tmin - Минимальная температура - минимум температуры воздуха на высоте 2 м над землей.
Tmax - Максимальная температура - максимум температуры воздуха на высоте 2 м над землей.
R - Количество осадков - Количество выпавших осадков за период времени, мм. При наведении курсора мыши на число - период времени, за который выпало указанное количество осадков.
R24 - Количество осадков - Количество выпавших осадков за 24 часа, мм.
S - Снежный покров - Высота снежного покрова, см. При наведении курсора мыши на число - состояние снежного покрова и степень покрытия местности в баллах.